| time (UTC) | temp F | wind direction | speed MPH | gust MPH | rain 1hr in | rain 24hr in | rain mn in | humidity % | barometer mb |
| 20260904061554 | 85 | 146 | 1.0 | 1.0 | 0.00 | 0.03 | 0.03 | 53 | 1008.5 |
| 20260904060521 | 85 | 197 | 2.0 | 2.0 | 0.00 | 0.03 | 0.03 | 53 | 1008.5 |
| 20260904055527 | 85 | 193 | 2.0 | 2.0 | 0.00 | 0.03 | 0.03 | 53 | 1008.4 |
| 20260904054525 | 85 | 213 | 1.0 | 2.0 | 0.00 | 0.03 | 0.03 | 53 | 1008.3 |
| 20260904053526 | 85 | 196 | 1.0 | 1.0 | 0.00 | 0.03 | 0.03 | 53 | 1008.2 |
| 20260904052521 | 86 | 187 | 1.0 | 2.0 | 0.00 | 0.03 | 0.03 | 53 | 1008.2 |
| 20260904051520 | 86 | 144 | 1.0 | 1.0 | 0.00 | 0.03 | 0.03 | 53 | 1008.3 |
| 20260904050552 | 86 | 234 | 1.0 | 1.0 | 0.00 | 0.03 | 0.03 | 53 | 1008.3 |
| 20260904045549 | 86 | 163 | 1.0 | 1.0 | 0.00 | 0.03 | 0.03 | 53 | 1008.4 |
| 20260904044522 | 86 | 170 | 1.0 | 2.0 | 0.00 | 0.03 | 0.03 | 53 | 1008.4 |
| 20260904043528 | 86 | 192 | 1.0 | 1.0 | 0.00 | 0.03 | 0.03 | 53 | 1008.5 |
| 20260904042534 | 86 | 195 | 2.0 | 2.0 | 0.00 | 0.03 | 0.03 | 53 | 1008.6 |
| 20260904041528 | 86 | 196 | 1.0 | 1.0 | 0.00 | 0.03 | 0.03 | 53 | 1008.6 |
| 20260904040550 | 87 | 202 | 2.0 | 2.0 | 0.00 | 0.03 | 0.03 | 52 | 1008.5 |
| 20260904035548 | 86 | 161 | 2.0 | 2.0 | 0.00 | 0.03 | 0.03 | 52 | 1008.4 |
| 20260904034524 | 87 | 198 | 2.0 | 2.0 | 0.00 | 0.03 | 0.03 | 52 | 1008.2 |
| 20260904033550 | 87 | 232 | 2.0 | 2.0 | 0.00 | 0.03 | 0.03 | 52 | 1008.0 |
| 20260904032525 | 87 | 178 | 2.0 | 3.0 | 0.00 | 0.03 | 0.03 | 52 | 1007.8 |
| 20260904031543 | 87 | 201 | 2.0 | 2.0 | 0.00 | 0.03 | 0.03 | 52 | 1007.7 |
| 20260904030522 | 87 | 169 | 2.0 | 2.0 | 0.00 | 0.03 | 0.03 | 52 | 1007.5 |
| 20260904025543 | 88 | 164 | 1.0 | 2.0 | 0.00 | 0.03 | 0.03 | 51 | 1007.3 |
| 20260904024528 | 88 | 219 | 2.0 | 2.0 | 0.00 | 0.03 | 0.03 | 51 | |
| 20260904023544 | 88 | 348 | 1.0 | 2.0 | 0.00 | 0.03 | 0.03 | 51 | |
| 20260904022549 | 88 | 194 | 1.0 | 2.0 | 0.00 | 0.03 | 0.03 | 51 | |
| 20260904021527 | 88 | 155 | 1.0 | 1.0 | 0.00 | 0.03 | 0.03 | 50 | |
| 20260904020524 | 89 | 161 | 1.0 | 1.0 | 0.00 | 0.03 | 0.03 | 50 | 1007.0 |
| 20260904015546 | 89 | 242 | 1.0 | 1.0 | 0.00 | 0.03 | 0.03 | 49 | 1006.8 |
| 20260904014541 | 90 | 147 | 1.0 | 2.0 | 0.00 | 0.03 | 0.03 | 49 | 1006.6 |
| 20260904013537 | 90 | 159 | 1.0 | 1.0 | 0.00 | 0.03 | 0.03 | 50 | 1006.5 |
| 20260904012543 | 90 | 189 | 1.0 | 1.0 | 0.03 | 0.03 | 0.03 | 52 | 1006.5 |
| 20260904011524 | 90 | 192 | 1.0 | 1.0 | 0.03 | 0.03 | 0.03 | 52 | 1006.3 |
| 20260904010522 | 90 | 159 | 1.0 | 1.0 | 0.03 | 0.03 | 0.03 | 52 | 1006.3 |
| 20260904005528 | 90 | 205 | 0.0 | 1.0 | 0.03 | 0.03 | 0.03 | 52 | 1006.4 |
| 20260904004531 | 90 | 0.0 | 0.0 | 0.03 | 0.03 | 0.03 | 52 | 1006.4 | |
| 20260904003540 | 91 | 0.0 | 0.0 | 0.03 | 0.03 | 0.03 | 53 | 1006.5 | |
| 20260904002521 | 92 | 17 | 0.0 | 0.0 | 0.00 | 0.00 | 0.00 | 52 | 1006.3 |
| 20260904001559 | 92 | 180 | 1.0 | 1.0 | 0.00 | 0.00 | 0.00 | 49 | 1006.4 |
| 20260904000546 | 93 | 181 | 1.0 | 1.0 | 0.00 | 0.00 | 0.00 | 46 | 1006.3 |
| 20260903235526 | 94 | 154 | 2.0 | 2.0 | 0.00 | 0.00 | 0.00 | 44 | 1006.2 |
| 20260903234542 | 96 | 148 | 1.0 | 1.0 | 0.00 | 0.00 | 0.00 | 40 | 1006.4 |
| 20260903233538 | 96 | 237 | 1.0 | 1.0 | 0.00 | 0.00 | 0.00 | 40 | 1006.3 |
| 20260903232536 | 96 | 293 | 1.0 | 1.0 | 0.00 | 0.00 | 0.00 | 39 | 1006.4 |
| 20260903231523 | 97 | 226 | 1.0 | 2.0 | 0.00 | 0.00 | 0.00 | 40 | 1006.4 |
| 20260903230524 | 97 | 301 | 1.0 | 1.0 | 0.00 | 0.00 | 0.00 | 41 | 1006.3 |
| 20260903225550 | 97 | 280 | 1.0 | 1.0 | 0.00 | 0.00 | 0.00 | 40 | 1006.5 |
| 20260903224527 | 97 | 271 | 1.0 | 1.0 | 0.00 | 0.00 | 0.00 | 39 | 1006.5 |
| 20260903223547 | 97 | 244 | 1.0 | 1.0 | 0.00 | 0.00 | 0.00 | 40 | 1006.5 |
| 20260903222539 | 97 | 311 | 1.0 | 1.0 | 0.00 | 0.00 | 0.00 | 40 | 1006.6 |
| 20260903221522 | 97 | 305 | 1.0 | 1.0 | 0.00 | 0.00 | 0.00 | 40 | 1006.8 |
| 20260903220520 | 96 | 290 | 0.0 | 0.0 | 0.00 | 0.00 | 0.00 | 39 | 1006.9 |
| 20260903215557 | 97 | 127 | 1.0 | 1.0 | 0.00 | 0.00 | 0.00 | 39 | 1007.0 |
| 20260903214527 | 97 | 299 | 1.0 | 1.0 | 0.00 | 0.00 | 0.00 | 40 | 1007.1 |
| 20260903213541 | 97 | 242 | 2.0 | 2.0 | 0.00 | 0.00 | 0.00 | 40 | 1007.2 |
| 20260903212553 | 97 | 255 | 1.0 | 2.0 | 0.00 | 0.00 | 0.00 | 40 | 1007.3 |
| 20260903211528 | 97 | 14 | 1.0 | 1.0 | 0.00 | 0.00 | 0.00 | 41 | 1007.3 |
| 20260903210533 | 97 | 285 | 1.0 | 1.0 | 0.00 | 0.00 | 0.00 | 41 | 1007.5 |
| 20260903205523 | 96 | 339 | 2.0 | 2.0 | 0.00 | 0.00 | 0.00 | 41 | 1007.6 |
| 20260903204538 | 96 | 355 | 1.0 | 2.0 | 0.00 | 0.00 | 0.00 | 41 | 1007.8 |
| 20260903203520 | 96 | 335 | 1.0 | 1.0 | 0.00 | 0.00 | 0.00 | 41 | 1007.9 |
| 20260903202526 | 96 | 340 | 1.0 | 1.0 | 0.00 | 0.00 | 0.00 | 41 | 1008.1 |
| 20260903201551 | 96 | 301 | 1.0 | 1.0 | 0.00 | 0.00 | 0.00 | 42 | 1008.3 |
| 20260903200520 | 95 | 28 | 1.0 | 1.0 | 0.00 | 0.00 | 0.00 | 42 | 1008.4 |
| 20260903195519 | 95 | 206 | 1.0 | 1.0 | 0.00 | 0.00 | 0.00 | 41 | 1008.6 |
| 20260903194535 | 95 | 227 | 1.0 | 1.0 | 0.00 | 0.00 | 0.00 | 42 | 1008.7 |
| 20260903193523 | 95 | 278 | 0.0 | 1.0 | 0.00 | 0.00 | 0.00 | 43 | 1008.9 |
| 20260903192531 | 94 | 15 | 1.0 | 2.0 | 0.00 | 0.00 | 0.00 | 43 | 1009.0 |
| 20260903191548 | 95 | 237 | 1.0 | 1.0 | 0.00 | 0.00 | 0.00 | 43 | 1009.2 |
| 20260903190526 | 95 | 285 | 1.0 | 2.0 | 0.00 | 0.00 | 0.00 | 43 | 1009.4 |
| 20260903185545 | 95 | 234 | 1.0 | 1.0 | 0.00 | 0.00 | 0.00 | 44 | 1009.6 |
| 20260903184520 | 94 | 241 | 2.0 | 2.0 | 0.00 | 0.00 | 0.00 | 45 | 1009.8 |
| 20260903183521 | 93 | 238 | 1.0 | 2.0 | 0.00 | 0.00 | 0.00 | 46 | 1009.9 |
| 20260903182552 | 93 | 266 | 1.0 | 1.0 | 0.00 | 0.00 | 0.00 | 46 | 1010.1 |
| 20260903181528 | 92 | 214 | 1.0 | 1.0 | 0.00 | 0.00 | 0.00 | 47 | 1010.3 |
| 20260903180531 | 91 | 218 | 1.0 | 1.0 | 0.00 | 0.00 | 0.00 | 49 | 1010.5 |
| 20260903175539 | 90 | 208 | 1.0 | 1.0 | 0.00 | 0.00 | 0.00 | 50 | 1010.6 |
| 20260903174524 | 89 | 71 | 0.0 | 1.0 | 0.00 | 0.00 | 0.00 | 51 | 1010.7 |
| 20260903173609 | 88 | 276 | 1.0 | 1.0 | 0.00 | 0.00 | 0.00 | 51 | 1010.7 |
| 20260903172525 | 88 | 203 | 0.0 | 1.0 | 0.00 | 0.00 | 0.00 | 52 | 1010.7 |
| 20260903171541 | 88 | 187 | 1.0 | 1.0 | 0.00 | 0.00 | 0.00 | 52 | 1010.7 |
| 20260903170547 | 87 | 199 | 0.0 | 1.0 | 0.00 | 0.00 | 0.00 | 52 | 1010.6 |
| 20260903165523 | 87 | 190 | 0.0 | 0.0 | 0.00 | 0.00 | 0.00 | 52 | 1010.6 |
| 20260903164525 | 87 | 202 | 0.0 | 1.0 | 0.00 | 0.00 | 0.00 | 52 | 1010.6 |
| 20260903163522 | 87 | 159 | 1.0 | 1.0 | 0.00 | 0.00 | 0.00 | 52 | 1010.6 |
| 20260903162538 | 87 | 205 | 1.0 | 1.0 | 0.00 | 0.00 | 0.00 | 52 | 1010.6 |
| 20260903161535 | 87 | 122 | 0.0 | 0.0 | 0.00 | 0.00 | 0.00 | 52 | 1010.6 |
| 20260903160548 | 87 | 45 | 0.0 | 0.0 | 0.00 | 0.00 | 0.00 | 52 | 1010.6 |
| 20260903155623 | 87 | 56 | 0.0 | 1.0 | 0.00 | 0.00 | 0.00 | 52 | 1010.6 |
| 20260903154530 | 87 | 66 | 1.0 | 1.0 | 0.00 | 0.00 | 0.00 | 53 | 1010.6 |
| 20260903153527 | 87 | 21 | 0.0 | 1.0 | 0.00 | 0.00 | 0.00 | 53 | 1010.5 |
| 20260903152547 | 86 | 59 | 1.0 | 1.0 | 0.00 | 0.00 | 0.00 | 54 | 1010.6 |
| 20260903151524 | 86 | 27 | 1.0 | 1.0 | 0.00 | 0.00 | 0.00 | 54 | 1010.6 |
| 20260903150522 | 85 | 39 | 1.0 | 1.0 | 0.00 | 0.00 | 0.00 | 55 | 1010.6 |
| 20260903145520 | 84 | 46 | 0.0 | 1.0 | 0.00 | 0.00 | 0.00 | 55 | 1010.7 |
| 20260903144531 | 83 | 33 | 0.0 | 0.0 | 0.00 | 0.00 | 0.00 | 55 | 1010.7 |
| 20260903143538 | 83 | 27 | 1.0 | 1.0 | 0.00 | 0.00 | 0.00 | 55 | 1010.8 |
| 20260903142522 | 83 | 328 | 1.0 | 1.0 | 0.00 | 0.00 | 0.00 | 55 | |
| 20260903141537 | 83 | 345 | 1.0 | 1.0 | 0.00 | 0.00 | 0.00 | 55 | 1011.0 |
| 20260903140523 | 83 | 310 | 1.0 | 1.0 | 0.00 | 0.00 | 0.00 | 55 | 1010.8 |
| 20260903135529 | 83 | 339 | 1.0 | 1.0 | 0.00 | 0.00 | 0.00 | 55 | 1010.8 |
| 20260903134536 | 83 | 322 | 0.0 | 1.0 | 0.00 | 0.00 | 0.00 | 55 | 1010.7 |
| 20260903133541 | 83 | 312 | 0.0 | 0.0 | 0.00 | 0.00 | 0.00 | 55 | 1010.6 |
| 20260903132533 | 83 | 306 | 0.0 | 0.0 | 0.00 | 0.00 | 0.00 | 55 | 1010.6 |
| 20260903131520 | 83 | 0.0 | 0.0 | 0.00 | 0.00 | 0.00 | 55 | 1010.3 | |
| 20260903130526 | 83 | 0.0 | 0.0 | 0.00 | 0.00 | 0.00 | 55 | 1010.2 | |
| 20260903125552 | 83 | 0.0 | 0.0 | 0.00 | 0.00 | 0.00 | 55 | 1010.1 | |
| 20260903124538 | 83 | 195 | 0.0 | 0.0 | 0.00 | 0.00 | 0.00 | 55 | 1010.0 |
| 20260903123551 | 83 | 245 | 1.0 | 2.0 | 0.00 | 0.00 | 0.00 | 55 | 1009.9 |
| 20260903122532 | 83 | 211 | 1.0 | 1.0 | 0.00 | 0.00 | 0.00 | 55 | 1009.6 |
| 20260903121544 | 84 | 222 | 0.0 | 1.0 | 0.00 | 0.00 | 0.00 | 55 | 1009.6 |
| 20260903120529 | 83 | 183 | 0.0 | 0.0 | 0.00 | 0.00 | 0.00 | 55 | 1009.5 |
| 20260903115527 | 84 | 158 | 0.0 | 0.0 | 0.00 | 0.00 | 0.00 | 55 | 1009.3 |
| 20260903114526 | 84 | 149 | 0.0 | 1.0 | 0.00 | 0.00 | 0.00 | 55 | 1009.2 |
| 20260903113523 | 84 | 201 | 0.0 | 1.0 | 0.00 | 0.00 | 0.00 | 55 | 1009.2 |
| 20260903112521 | 84 | 103 | 0.0 | 1.0 | 0.00 | 0.00 | 0.00 | 55 | 1009.2 |
| 20260903111519 | 83 | 172 | 1.0 | 1.0 | 0.00 | 0.00 | 0.00 | 55 | 1009.2 |
| 20260903110532 | 84 | 132 | 1.0 | 1.0 | 0.00 | 0.00 | 0.00 | 55 | 1009.2 |
| 20260903105523 | 84 | 147 | 1.0 | 1.0 | 0.00 | 0.00 | 0.00 | 55 | 1009.2 |
| 20260903104539 | 84 | 153 | 1.0 | 1.0 | 0.00 | 0.00 | 0.00 | 55 | 1009.3 |
| 20260903103551 | 84 | 209 | 1.0 | 1.0 | 0.00 | 0.00 | 0.00 | 54 | 1009.4 |
| 20260903102524 | 84 | 189 | 0.0 | 1.0 | 0.00 | 0.00 | 0.00 | 54 | 1009.4 |
| 20260903101529 | 84 | 174 | 1.0 | 1.0 | 0.00 | 0.00 | 0.00 | 54 | 1009.5 |
| 20260903100520 | 85 | 148 | 1.0 | 1.0 | 0.00 | 0.00 | 0.00 | 54 | 1009.5 |
| 20260903095615 | 85 | 141 | 0.0 | 1.0 | 0.00 | 0.00 | 0.00 | 53 | 1009.4 |
| 20260903094520 | 85 | 0.0 | 0.0 | 0.00 | 0.00 | 0.00 | 53 | 1009.4 | |
| 20260903093521 | 86 | 0.0 | 0.0 | 0.00 | 0.00 | 0.00 | 53 | 1009.4 | |
| 20260903092526 | 86 | 0.0 | 0.0 | 0.00 | 0.00 | 0.00 | 53 | 1009.5 | |
| 20260903091533 | 86 | 0.0 | 0.0 | 0.00 | 0.00 | 0.00 | 53 | 1009.5 | |
| 20260903090532 | 86 | 0.0 | 0.0 | 0.00 | 0.00 | 0.00 | 53 | 1009.6 | |
| 20260903085534 | 86 | 0.0 | 0.0 | 0.00 | 0.00 | 0.00 | 53 | 1009.7 | |
| 20260903084523 | 86 | 0.0 | 0.0 | 0.00 | 0.00 | 0.00 | 52 | 1009.7 | |
| 20260903083525 | 86 | 0.0 | 0.0 | 0.00 | 0.00 | 0.00 | 52 | 1009.7 | |
| 20260903082529 | 86 | 157 | 0.0 | 0.0 | 0.00 | 0.00 | 0.00 | 52 | 1009.7 |
| 20260903081528 | 86 | 190 | 0.0 | 1.0 | 0.00 | 0.00 | 0.00 | 52 | 1009.8 |
| 20260903080524 | 87 | 210 | 0.0 | 1.0 | 0.00 | 0.00 | 0.00 | 51 | 1009.8 |
| 20260903075522 | 87 | 228 | 0.0 | 0.0 | 0.00 | 0.00 | 0.00 | 52 | 1009.8 |
| 20260903074521 | 87 | 225 | 0.0 | 0.0 | 0.00 | 0.00 | 0.00 | 52 | 1009.9 |
| 20260903073527 | 87 | 0.0 | 0.0 | 0.00 | 0.00 | 0.00 | 52 | 1009.8 | |
| 20260903072525 | 87 | 0.0 | 0.0 | 0.00 | 0.00 | 0.00 | 52 | 1009.7 | |
| 20260903071540 | 87 | 0.0 | 0.0 | 0.00 | 0.00 | 0.00 | 52 | 1009.7 | |
| 20260903070545 | 87 | 0.0 | 0.0 | 0.00 | 0.00 | 0.00 | 52 | 1009.6 | |
| 20260903065552 | 87 | 0.0 | 0.0 | 0.00 | 0.00 | 0.00 | 51 | 1009.5 | |
| 20260903064524 | 88 | 0.0 | 0.0 | 0.00 | 0.00 | 0.00 | 51 | 1009.5 | |
| 20260903063542 | 88 | 0.0 | 0.0 | 0.00 | 0.00 | 0.00 | 50 | 1009.6 | |
| 20260903062557 | 88 | 0.0 | 0.0 | 0.00 | 0.00 | 0.00 | 50 | 1009.6 |